�������l�o���
Date,Time,MP-1(��Sv/h),MP-2(��Sv/h),MP-3(��Sv/h),MP-4(��Sv/h),MP-5(��Sv/h),MP-6(��Sv/h),MP-7(��Sv/h),MP-8(��Sv/h),����,����(m/s),���J
2017/11/09,00:00,0.917,1.464,0.929,1.735,1.192,0.505,0.916,0.851,���k��,5.9,��
2017/11/09,00:10,0.920,1.462,0.927,1.733,1.188,0.505,0.915,0.850,���k��,6.6,��
2017/11/09,00:20,0.916,1.464,0.930,1.733,1.188,0.505,0.917,0.852,���k��,10.0,��
2017/11/09,00:30,0.918,1.465,0.930,1.732,1.190,0.505,0.915,0.852,�k��,7.8,��
2017/11/09,00:40,0.917,1.466,0.927,1.731,1.190,0.505,0.914,0.852,�k�k��,5.3,��
2017/11/09,00:50,0.917,1.464,0.928,1.733,1.191,0.506,0.915,0.852,�k��,6.4,��
2017/11/09,01:00,0.916,1.464,0.928,1.732,1.190,0.505,0.914,0.850,�k��,6.2,��
2017/11/09,01:10,0.915,1.466,0.928,1.731,1.188,0.504,0.914,0.851,�k��,8.5,��
2017/11/09,01:20,0.917,1.465,0.930,1.733,1.187,0.504,0.914,0.851,�k��,10.0,��
2017/11/09,01:30,0.915,1.466,0.927,1.736,1.188,0.505,0.912,0.852,�k��,9.3,��
2017/11/09,01:40,0.918,1.465,0.930,1.734,1.186,0.504,0.913,0.851,���k��,11.0,��
2017/11/09,01:50,0.916,1.463,0.930,1.733,1.186,0.504,0.912,0.850,���k��,8.2,��
2017/11/09,02:00,0.916,1.463,0.929,1.737,1.189,0.504,0.912,0.851,�k��,5.4,�L
2017/11/09,02:10,0.916,1.464,0.928,1.736,1.189,0.504,0.911,0.853,���k��,4.3,��
2017/11/09,02:20,0.917,1.463,0.926,1.732,1.190,0.504,0.910,0.853,�k��,5.0,��
2017/11/09,02:30,0.915,1.462,0.930,1.735,1.188,0.505,0.911,0.850,�k�k��,5.9,��
2017/11/09,02:40,0.916,1.465,0.929,1.733,1.191,0.504,0.911,0.852,�k�k��,7.2,��
2017/11/09,02:50,0.916,1.464,0.930,1.733,1.188,0.504,0.913,0.852,�k��,8.8,��
2017/11/09,03:00,0.915,1.465,0.928,1.733,1.190,0.504,0.913,0.852,�k�k��,9.0,��
2017/11/09,03:10,0.914,1.467,0.930,1.734,1.191,0.505,0.914,0.852,�k��,8.1,��
2017/11/09,03:20,0.914,1.464,0.930,1.733,1.188,0.506,0.914,0.851,�k��,5.8,��
2017/11/09,03:30,0.915,1.466,0.929,1.734,1.188,0.504,0.913,0.851,�k��,6.1,��
2017/11/09,03:40,0.915,1.462,0.928,1.731,1.188,0.502,0.911,0.850,�k�k��,5.4,��
2017/11/09,03:50,0.914,1.462,0.926,1.735,1.187,0.503,0.912,0.850,�k��,5.4,��
2017/11/09,04:00,0.913,1.464,0.927,1.732,1.188,0.503,0.913,0.852,�k��,6.9,��
2017/11/09,04:10,0.914,1.464,0.927,1.735,1.187,0.501,0.912,0.852,�k�k��,6.5,��
2017/11/09,04:20,0.915,1.464,0.927,1.733,1.188,0.504,0.913,0.850,�k�k��,6.7,��
2017/11/09,04:30,0.916,1.465,0.928,1.733,1.189,0.503,0.914,0.852,�k�k��,7.6,��
2017/11/09,04:40,0.915,1.466,0.927,1.733,1.187,0.503,0.914,0.850,�k��,8.4,��
2017/11/09,04:50,0.914,1.462,0.928,1.736,1.190,0.503,0.913,0.848,�k��,8.4,��
2017/11/09,05:00,0.913,1.466,0.928,1.736,1.191,0.504,0.912,0.851,�k��,6.4,��
2017/11/09,05:10,0.913,1.467,0.928,1.733,1.188,0.503,0.913,0.849,�k��,9.3,��
2017/11/09,05:20,0.914,1.464,0.929,1.732,1.190,0.502,0.913,0.849,�k��,8.6,��
2017/11/09,05:30,0.915,1.464,0.928,1.735,1.188,0.503,0.913,0.851,�k��,6.8,��
2017/11/09,05:40,0.916,1.464,0.929,1.735,1.188,0.503,0.912,0.851,�k��,12.0,��
2017/11/09,05:50,0.913,1.462,0.928,1.735,1.191,0.501,0.913,0.851,�k��,11.8,��
2017/11/09,06:00,0.916,1.463,0.929,1.735,1.190,0.503,0.912,0.852,�k��,10.4,��
2017/11/09,06:10,0.916,1.468,0.928,1.736,1.190,0.501,0.911,0.850,�k��,9.8,��
2017/11/09,06:20,0.913,1.467,0.928,1.738,1.190,0.504,0.912,0.850,�k��,11.3,��
2017/11/09,06:30,0.911,1.466,0.931,1.735,1.189,0.501,0.912,0.850,�k��,7.6,��
2017/11/09,06:40,0.912,1.465,0.929,1.736,1.189,0.503,0.911,0.851,�k��,6.9,��
2017/11/09,06:50,0.913,1.466,0.926,1.735,1.189,0.502,0.913,0.850,�k��,7.7,��
2017/11/09,07:00,0.915,1.465,0.928,1.734,1.189,0.502,0.913,0.850,�k��,6.5,��
2017/11/09,07:10,0.914,1.468,0.927,1.736,1.190,0.501,0.912,0.851,�k��,8.5,��
2017/11/09,07:20,0.916,1.466,0.929,1.736,1.188,0.502,0.913,0.850,�k��,7.9,��
2017/11/09,07:30,0.914,1.466,0.928,1.737,1.190,0.502,0.913,0.849,�k��,7.3,��
2017/11/09,07:40,0.915,1.467,0.929,1.736,1.188,0.502,0.914,0.851,�k��,7.7,��
2017/11/09,07:50,0.915,1.466,0.927,1.736,1.188,0.503,0.914,0.851,�k��,9.5,��
2017/11/09,08:00,0.913,1.466,0.928,1.737,1.189,0.501,0.913,0.853,�k��,11.0,��
2017/11/09,08:10,0.913,1.465,0.927,1.736,1.191,0.502,0.914,0.851,�k��,11.7,��
2017/11/09,08:20,0.915,1.469,0.928,1.737,1.189,0.503,0.914,0.853,�k��,10.7,��
2017/11/09,08:30,0.915,1.467,0.930,1.736,1.190,0.502,0.912,0.852,���k��,10.6,��
2017/11/09,08:40,0.915,1.466,0.929,1.738,1.190,0.502,0.912,0.853,�k��,8.0,��
2017/11/09,08:50,0.918,1.465,0.930,1.739,1.188,0.502,0.913,0.851,���k��,8.6,��
2017/11/09,09:00,0.917,1.460,0.928,1.739,1.192,0.503,0.913,0.852,�k��,9.2,��
2017/11/09,09:10,0.915,1.463,0.927,1.737,1.190,0.503,0.913,0.852,�k��,8.4,��
2017/11/09,09:20,0.915,1.463,0.930,1.737,1.189,0.503,0.912,0.852,�k��,8.7,��
2017/11/09,09:30,0.915,1.459,0.928,1.740,1.193,0.504,0.912,0.851,���k��,6.8,��
2017/11/09,09:40,0.917,1.464,0.930,1.739,1.192,0.504,0.914,0.852,�k��,5.0,��
2017/11/09,09:50,0.918,1.464,0.930,1.739,1.192,0.504,0.914,0.853,�k��,7.3,��
2017/11/09,10:00,0.915,1.463,0.930,1.741,1.189,0.502,0.913,0.851,�k��,6.9,��
2017/11/09,10:10,0.918,1.464,0.931,1.740,1.188,0.503,0.912,0.854,�k��,7.5,��
2017/11/09,10:20,0.914,1.461,0.931,1.740,1.190,0.504,0.915,0.853,�k�k��,6.1,��
2017/11/09,10:30,0.915,1.463,0.930,1.743,1.191,0.502,0.914,0.852,�k��,6.0,��
2017/11/09,10:40,0.918,1.463,0.932,1.743,1.191,0.502,0.912,0.851,�k��,7.3,��
2017/11/09,10:50,0.916,1.464,0.932,1.743,1.188,0.502,0.913,0.851,�k�k��,7.9,��
2017/11/09,11:00,0.915,1.465,0.929,1.740,1.193,0.501,0.915,0.851,�k��,8.3,��
2017/11/09,11:10,0.917,1.465,0.930,1.742,1.191,0.500,0.915,0.852,�k��,7.7,��
2017/11/09,11:20,0.918,1.466,0.927,1.744,1.191,0.500,0.915,0.853,�k��,9.0,��
2017/11/09,11:30,0.917,1.465,0.930,1.741,1.193,0.501,0.914,0.851,�k��,8.6,��
2017/11/09,11:40,0.915,1.466,0.931,1.743,1.191,0.502,0.914,0.854,�k�k��,9.0,��
2017/11/09,11:50,0.916,1.468,0.929,1.744,1.192,0.501,0.915,0.851,�k��,11.8,��
2017/11/09,12:00,0.918,1.468,0.930,1.744,1.193,0.503,0.915,0.853,�k��,9.3,��
2017/11/09,12:10,0.917,1.469,0.932,1.745,1.195,0.504,0.912,0.852,�k��,9.9,��
2017/11/09,12:20,0.917,1.469,0.930,1.745,1.194,0.503,0.914,0.851,�k��,10.2,��
2017/11/09,12:30,0.919,1.471,0.931,1.744,1.194,0.504,0.915,0.851,�k��,8.9,��
2017/11/09,12:40,0.921,1.468,0.933,1.747,1.195,0.504,0.916,0.850,�k��,7.1,��
2017/11/09,12:50,0.918,1.469,0.930,1.745,1.194,0.503,0.913,0.848,�k��,7.5,��
2017/11/09,13:00,0.920,1.468,0.932,1.748,1.195,0.504,0.913,0.850,�k��,8.4,��
2017/11/09,13:10,0.919,1.468,0.930,1.743,1.194,0.503,0.913,0.850,�k��,8.4,��
2017/11/09,13:20,0.918,1.469,0.933,1.747,1.197,0.502,0.914,0.850,�k��,8.7,��
2017/11/09,13:30,0.920,1.466,0.930,1.745,1.196,0.502,0.914,0.850,�k��,8.3,��
2017/11/09,13:40,0.919,1.467,0.932,1.747,1.195,0.501,0.914,0.849,�k��,5.9,��
2017/11/09,13:50,0.919,1.469,0.931,1.746,1.191,0.503,0.916,0.849,�k��,5.8,��
2017/11/09,14:00,0.919,1.469,0.930,1.747,1.195,0.503,0.915,0.849,�k��,3.8,��
2017/11/09,14:10,0.917,1.470,0.930,1.744,1.195,0.502,0.915,0.849,�k�k��,4.2,��
2017/11/09,14:20,0.917,1.467,0.933,1.745,1.194,0.503,0.913,0.850,�k�k��,3.9,��
2017/11/09,14:30,0.918,1.470,0.934,1.746,1.195,0.502,0.914,0.849,�k�k��,5.8,��
2017/11/09,14:40,0.920,1.470,0.932,1.744,1.194,0.502,0.913,0.849,�k�k��,6.2,��
2017/11/09,14:50,0.918,1.466,0.932,1.748,1.196,0.502,0.914,0.850,�k��,9.2,��
2017/11/09,15:00,0.916,1.469,0.930,1.745,1.194,0.504,0.914,0.851,�k��,9.3,��
2017/11/09,15:10,0.916,1.470,0.931,1.746,1.195,0.503,0.914,0.849,�k��,8.2,��
2017/11/09,15:20,0.918,1.472,0.932,1.745,1.195,0.503,0.913,0.851,�k��,10.5,��
2017/11/09,15:30,0.918,1.477,0.932,1.750,1.195,0.504,0.914,0.851,�k��,10.2,��
2017/11/09,15:40,0.917,1.473,0.932,1.748,1.191,0.504,0.912,0.853,�k��,4.7,��
2017/11/09,15:50,0.920,1.474,0.932,1.748,1.194,0.503,0.913,0.852,�k��,4.4,��
2017/11/09,16:00,0.917,1.476,0.931,1.746,1.195,0.503,0.912,0.855,�k��,5.9,��
2017/11/09,16:10,0.916,1.473,0.933,1.747,1.194,0.503,0.914,0.854,�k��,6.6,��
2017/11/09,16:20,0.913,1.474,0.934,1.745,1.195,0.502,0.913,0.852,�k��,6.0,��
2017/11/09,16:30,0.916,1.476,0.931,1.748,1.195,0.502,0.913,0.851,�k��,6.8,��
2017/11/09,16:40,0.917,1.474,0.933,1.746,1.201,0.501,0.912,0.852,�k��,6.4,��
2017/11/09,16:50,0.916,1.473,0.933,1.749,1.195,0.502,0.913,0.851,�k��,6.2,��
2017/11/09,17:00,0.915,1.473,0.933,1.746,1.197,0.502,0.913,0.851,�k��,5.8,��
2017/11/09,17:10,0.916,1.473,0.932,1.745,1.197,0.503,0.912,0.850,�k��,4.7,��
2017/11/09,17:20,0.916,1.476,0.932,1.747,1.198,0.501,0.913,0.850,���k��,5.1,��
2017/11/09,17:30,0.916,1.474,0.932,1.747,1.196,0.501,0.914,0.850,���k��,5.8,��
2017/11/09,17:40,0.915,1.473,0.934,1.745,1.196,0.502,0.915,0.852,���k��,6.3,��
2017/11/09,17:50,0.915,1.473,0.931,1.745,1.196,0.502,0.915,0.850,���k��,6.7,��
2017/11/09,18:00,0.916,1.470,0.934,1.747,1.197,0.501,0.914,0.851,�k��,6.7,��
2017/11/09,18:10,0.915,1.473,0.933,1.745,1.196,0.503,0.917,0.849,���k��,4.6,��
2017/11/09,18:20,0.916,1.474,0.933,1.745,1.197,0.501,0.915,0.849,���k��,4.0,��
2017/11/09,18:30,0.917,1.471,0.932,1.745,1.193,0.502,0.913,0.851,�k��,2.9,��
2017/11/09,18:40,0.917,1.475,0.933,1.744,1.197,0.503,0.915,0.852,�k��,3.0,��
2017/11/09,18:50,0.918,1.472,0.933,1.745,1.197,0.501,0.914,0.852,�k��,2.5,��
2017/11/09,19:00,0.915,1.474,0.930,1.745,1.195,0.501,0.914,0.850,�k��,2.6,��
2017/11/09,19:10,0.917,1.473,0.931,1.744,1.195,0.499,0.914,0.849,�k��,2.8,��
2017/11/09,19:20,0.915,1.471,0.929,1.746,1.197,0.501,0.915,0.851,�k��,3.2,��
2017/11/09,19:30,0.915,1.472,0.930,1.743,1.196,0.502,0.914,0.852,�k��,2.8,��
2017/11/09,19:40,0.916,1.472,0.931,1.742,1.194,0.501,0.914,0.849,���k��,2.2,��
2017/11/09,19:50,0.915,1.472,0.929,1.745,1.194,0.502,0.915,0.850,�k��,2.6,��
2017/11/09,20:00,0.914,1.472,0.930,1.743,1.197,0.500,0.914,0.849,�k��,4.5,��
2017/11/09,20:10,0.916,1.469,0.931,1.744,1.197,0.500,0.912,0.848,�k��,4.4,��
2017/11/09,20:20,0.915,1.470,0.933,1.743,1.195,0.502,0.912,0.848,�k��,4.9,��
2017/11/09,20:30,0.914,1.472,0.930,1.744,1.196,0.499,0.914,0.849,�k��,4.9,��
2017/11/09,20:40,0.915,1.470,0.929,1.743,1.196,0.501,0.914,0.849,�k��,5.2,��
2017/11/09,20:50,0.913,1.471,0.932,1.743,1.195,0.502,0.913,0.852,���k��,5.9,��
2017/11/09,21:00,0.914,1.473,0.930,1.743,1.196,0.499,0.912,0.849,���k��,5.7,��
2017/11/09,21:10,0.915,1.473,0.929,1.743,1.193,0.499,0.912,0.850,���k��,5.1,��
2017/11/09,21:20,0.915,1.468,0.930,1.742,1.196,0.501,0.915,0.850,��,5.1,��
2017/11/09,21:30,0.914,1.470,0.928,1.742,1.195,0.501,0.912,0.849,���k��,5.5,��
2017/11/09,21:40,0.914,1.469,0.928,1.739,1.195,0.500,0.912,0.849,���k��,5.5,��
2017/11/09,21:50,0.913,1.471,0.930,1.741,1.194,0.501,0.912,0.851,��,4.0,��
2017/11/09,22:00,0.913,1.471,0.929,1.742,1.195,0.500,0.912,0.849,��,4.2,��
2017/11/09,22:10,0.915,1.473,0.929,1.740,1.196,0.500,0.915,0.849,��,4.2,��
2017/11/09,22:20,0.914,1.470,0.929,1.741,1.195,0.500,0.911,0.850,��,4.3,��
2017/11/09,22:30,0.915,1.473,0.928,1.741,1.197,0.500,0.913,0.849,���k��,4.7,��
2017/11/09,22:40,0.915,1.473,0.930,1.740,1.195,0.499,0.913,0.849,���k��,5.0,��
2017/11/09,22:50,0.914,1.473,0.931,1.742,1.196,0.500,0.914,0.851,��,4.5,��
2017/11/09,23:00,0.915,1.472,0.928,1.743,1.196,0.500,0.911,0.850,���k��,5.1,��
2017/11/09,23:10,0.913,1.474,0.928,1.744,1.195,0.500,0.911,0.850,��,4.1,��
2017/11/09,23:20,0.915,1.470,0.930,1.743,1.196,0.502,0.912,0.849,��,3.5,��
2017/11/09,23:30,0.913,1.470,0.928,1.742,1.193,0.501,0.914,0.851,���쐼,4.7,��
2017/11/09,23:40,0.913,1.470,0.930,1.740,1.196,0.499,0.912,0.848,���쐼,5.2,��
2017/11/09,23:50,0.914,1.471,0.929,1.741,1.193,0.499,0.913,0.850,���쐼,4.8,��
